Weather History for Lake Charles, LA

Change the Weather History Date:

Saturday, March 16, 2013

  Actual Average Record
Temperature  
Mean Temperature 63 °F -  
Max Temperature 76 °F 70 °F 87 °F (2002)
Min Temperature 51 °F 54 °F 44 °F (2001)
Degree Days  
Heating Degree Days 2    
Growing Degree Days 13 (Base 50)    
Moisture  
Dew Point 55 °F    
Average Humidity 84    
Maximum Humidity 100    
Minimum Humidity 50    
Precipitation  
Precipitation 0.00 in - - ()
Sea Level Pressure  
Sea Level Pressure 30.03 in    
Wind  
Wind Speed 8 mph (South)    
Max Wind Speed 20 mph    
Max Gust Speed 23 mph    
Visibility 8 miles    
Events      
Averages and records for this station are not official NWS values.
T = Trace of Precipitation, MM = Missing Value Source: NWS Daily Summary

Daily Weather History Graph

Daily Weather History Graph

Search for Another Location

Airport:

Trip Planner

Search our weather history database for the weather conditions in past years. The results will help you decide how hot, cold, wet, or windy it might be!

Date:

Astronomy

Mar. 16, 2013 Rise Set
Actual Time 7:20 AM CDT 7:21 PM CDT
Civil Twilight 6:57 AM CDT 7:45 PM CDT
Nautical Twilight 6:29 AM CDT 8:13 PM CDT
Astronomical Twilight 6:01 AM CDT 8:41 PM CDT
Moon 10:12 AM CDT (3/16) No Moon Set
Length of Visible Light 12h 48m
Length of Day
12h 00m
Waxing Crescent, 23% of the Moon is Illuminated
Mar 16
Waxing Crescent
Mar 19
First Quarter
Mar 27
Full
Apr 2
Last Quarter
Apr 10
New

Hourly Weather History & Observations

Time (CDT) Temp. Dew Point Humidity Pressure Visibility Wind Dir Wind Speed Gust Speed Precip Events Conditions
12:15 AM 59.0 °F 57.2 °F 94% 30.11 in 10.0 mi South 8.1 mph - N/A   Clear
12:35 AM 59.0 °F 56.8 °F 93% 30.10 in 10.0 mi South 8.1 mph - N/A   Clear
12:55 AM 58.5 °F 56.3 °F 93% 30.10 in 10.0 mi South 5.8 mph - N/A   Clear
1:15 AM 58.6 °F 56.5 °F 93% 30.09 in 10.0 mi South 6.9 mph - N/A   Clear
1:35 AM 58.1 °F 55.9 °F 93% 30.08 in 10.0 mi South 6.9 mph - N/A   Clear
1:55 AM 57.7 °F 55.8 °F 93% 30.07 in 10.0 mi South 6.9 mph - N/A   Clear
2:15 AM 58.3 °F 55.9 °F 92% 30.07 in 10.0 mi South 8.1 mph - N/A   Clear
2:35 AM 58.3 °F 55.4 °F 90% 30.06 in 10.0 mi South 6.9 mph - N/A   Clear
2:55 AM 57.7 °F 55.0 °F 91% 30.05 in 10.0 mi South 6.9 mph - N/A   Clear
3:15 AM 55.6 °F 52.3 °F 89% 30.05 in 10.0 mi South 4.6 mph - N/A   Clear
3:35 AM 54.5 °F 52.7 °F 94% 30.05 in 10.0 mi Calm Calm - N/A   Clear
3:55 AM 53.8 °F 52.2 °F 94% 30.04 in 7.0 mi SE 3.5 mph - N/A   Clear
4:15 AM 53.8 °F 52.2 °F 94% 30.04 in 3.0 mi SSE 5.8 mph - N/A   Clear
4:35 AM 52.0 °F 50.7 °F 95% 30.03 in 2.5 mi South 5.8 mph - N/A   Clear
4:55 AM 52.3 °F 50.9 °F 95% 30.03 in 4.0 mi South 4.6 mph - N/A   Clear
5:15 AM 53.2 °F 51.8 °F 95% 30.03 in 5.0 mi South 4.6 mph - N/A   Clear
5:35 AM 52.0 °F 50.7 °F 95% 30.03 in 2.0 mi South 3.5 mph - N/A   Clear
5:55 AM 52.0 °F 50.9 °F 96% 30.03 in 1.2 mi South 4.6 mph - N/A   Scattered Clouds
6:00 AM 51.8 °F 51.8 °F 100% 30.03 in 4.0 mi South 4.6 mph - N/A   Scattered Clouds
6:15 AM 53.6 °F 52.0 °F 94% 30.03 in 0.2 mi SSE 4.6 mph - N/A   Unknown
6:35 AM 52.2 °F 50.9 °F 95% 30.03 in 0.2 mi SSE 4.6 mph - N/A   Mostly Cloudy
6:55 AM 52.0 °F 50.7 °F 95% 30.03 in 0.5 mi SSE 4.6 mph - N/A   Mostly Cloudy
6:56 AM 51.8 °F 51.8 °F 100% 30.03 in 4.0 mi SSE 4.6 mph - N/A   Scattered Clouds
7:50 AM 55.4 °F 53.6 °F 94% 30.05 in 5.0 mi Calm Calm - N/A   Mostly Cloudy
8:50 AM 60.8 °F 59.0 °F 94% 30.04 in 10.0 mi SSE 8.1 mph - N/A   Mostly Cloudy
9:54 AM 68.0 °F 60.8 °F 78% 30.05 in 10.0 mi South 16.1 mph - N/A   Scattered Clouds
10:52 AM 71.6 °F 57.2 °F 60% 30.06 in 10.0 mi SSW 19.6 mph - N/A   Mostly Cloudy
11:50 AM 73.4 °F 55.4 °F 53% 30.06 in 10.0 mi South 18.4 mph - N/A   Scattered Clouds
12:59 PM 75.2 °F 55.4 °F 50% 30.30 in 10.0 mi SSW 16.1 mph 23.0 mph N/A   Scattered Clouds
1:52 PM 75.2 °F 55.4 °F 50% 30.01 in 10.0 mi SSW 17.3 mph 23.0 mph N/A   Scattered Clouds
2:45 PM 75.2 °F 55.4 °F 50% 29.99 in 10.0 mi South 16.1 mph - N/A   Scattered Clouds
3:45 PM 73.4 °F 53.6 °F 50% 29.97 in 10.0 mi South 17.3 mph 23.0 mph N/A   Scattered Clouds
4:45 PM 73.4 °F 55.4 °F 53% 29.94 in 10.0 mi South 15.0 mph 23.0 mph N/A   Scattered Clouds
5:45 PM 71.6 °F 55.4 °F 57% 29.94 in 10.0 mi South 17.3 mph - N/A   Scattered Clouds
6:55 PM 69.8 °F 55.4 °F 60% 29.94 in 10.0 mi South 12.7 mph - N/A   Clear
7:45 PM 64.4 °F 57.2 °F 77% 29.94 in 10.0 mi South 6.9 mph - N/A   Clear
8:50 PM 57.2 °F 53.6 °F 88% 29.96 in 10.0 mi SSE 5.8 mph - N/A   Clear
9:45 PM 57.2 °F 55.4 °F 94% 29.96 in 10.0 mi SSE 5.8 mph - N/A   Clear
11:15 PM 59.0 °F 57.2 °F 94% 29.95 in 10.0 mi SSE 6.9 mph - N/A   Clear
11:35 PM 59.4 °F 57.4 °F 93% 29.95 in 10.0 mi SSE 5.8 mph - N/A   Clear
11:55 PM 59.4 °F 57.4 °F 93% 29.95 in 10.0 mi SSE 5.8 mph - N/A   Clear